DW9246 Weather Reports


Display with metric or nautical units.
time (UTC)temp
F
wind
direction
speed
MPH
gust
MPH
rain 1hr
in
rain 24hr
in
rain mn
in
humidity
%
barometer
mb
20180818141023 79 172 3.0 7.0 0.00 0.45 0.00 52 1019.6
20180818140022 79 120 2.0 7.0 0.00 0.54 0.00 54 1019.8
20180818135020 78 127 3.0 8.0 0.00 0.55 0.00 53 1019.8
20180818134023 78 157 5.0 11.0 0.00 0.56 0.00 53 1019.9
20180818133021 78 136 4.0 9.0 0.00 0.57 0.00 55 1019.9
20180818132022 78 128 3.0 9.0 0.00 0.57 0.00 55 1019.9
20180818131022 77 152 4.0 12.0 0.00 0.57 0.00 56 1020.0
20180818130022 78 149 4.0 10.0 0.00 0.57 0.00 55 1020.1
20180818125021 77 157 5.0 13.0 0.00 0.57 0.00 56 1020.1
20180818124021 77 158 4.0 9.0 0.00 0.57 0.00 56 1020.1
20180818123022 76 126 5.0 9.0 0.00 0.57 0.00 56 1020.2
20180818122021 76 146 5.0 11.0 0.00 0.57 0.00 58 1020.3
20180818121021 76 165 3.0 8.0 0.00 0.57 0.00 58 1020.3
20180818120019 76 176 4.0 10.0 0.00 0.57 0.00 57 1020.4
20180818115022 76 159 2.0 10.0 0.00 0.57 0.00 58 1020.5
20180818114023 75 166 3.0 9.0 0.00 0.57 0.00 60 1020.5
20180818113023 76 153 1.0 7.0 0.00 0.57 0.00 60 1020.7
20180818112022 75 159 1.0 7.0 0.00 0.57 0.00 59 1020.7
20180818111022 74 192 0.0 4.0 0.00 0.57 0.00 60 1020.7
20180818110022 74 0 0.0 0.0 0.00 0.57 0.00 62 1020.9
20180818105020 73 144 0.0 6.0 0.00 0.57 0.00 63 1021.0
20180818104021 73 119 1.0 6.0 0.00 0.57 0.00 64 1021.0
20180818103020 72 122 2.0 6.0 0.00 0.57 0.00 64 1021.1
20180818102022 73 120 2.0 9.0 0.00 0.57 0.00 65 1021.0
20180818101022 72 128 1.0 8.0 0.00 0.60 0.00 64 1021.2
20180818100021 72 90 0.0 4.0 0.00 0.61 0.00 63 1021.1
20180818095022 73 124 0.0 7.0 0.00 0.61 0.00 65 1021.0
20180818094020 73 140 2.0 9.0 0.00 0.61 0.00 64 1021.0
20180818093022 73 100 0.0 3.0 0.00 0.61 0.00 63 1021.1
20180818092022 72 108 0.0 3.0 0.00 0.61 0.00 65 1021.1
20180818091020 71 78 0.0 2.0 0.00 0.61 0.00 65 1021.0
20180818090022 71 88 1.0 4.0 0.00 0.61 0.00 67 1021.0
20180818085019 70 60 0.0 4.0 0.00 0.61 0.00 67 1021.1
20180818084022 71 117 0.0 3.0 0.00 0.61 0.00 64 1021.1
20180818083022 71 229 2.0 5.0 0.00 0.61 0.00 61 1021.0
20180818082021 70 240 2.0 7.0 0.00 0.61 0.00 63 1020.7
20180818081022 71 284 0.0 3.0 0.00 0.61 0.00 62 1020.7
20180818080022 71 279 0.0 2.0 0.00 0.61 0.00 66 1020.6
20180818075022 70 0 0.0 0.0 0.00 0.61 0.00 71 1020.7
20180818074022 69 78 0.0 2.0 0.00 0.61 0.00 72 1020.7
20180818073021 69 13 0.0 5.0 0.00 0.61 0.00 70 1020.4
20180818072023 69 330 1.0 7.0 0.00 0.61 0.00 68 1020.4
20180818071022 69 282 0.0 4.0 0.00 0.61 0.00 65 1020.3
20180818070022 68 0 0.0 0.0 0.00 0.61 0.00 72 1020.1
20180818065022 67 0 0.0 0.0 0.00 0.61 0.00 68 1020.1
20180818064022 66 0 0.0 0.0 0.00 0.61 0.00 73 1020.3
20180818063022 65 0 0.0 0.0 0.00 0.61 0.00 73 1020.3
20180818062022 66 0 0.0 0.0 0.00 0.61 0.00 75 1020.2
20180818061023 65 0 0.0 0.0 0.00 0.61 0.00 76 1020.2
20180818060023 65 354 1.0 8.0 0.00 0.61 0.00 76 1020.1
20180818055026 65 328 3.0 13.0 0.00 0.61 0.00 70 1019.9
20180818054021 64 313 6.0 15.0 0.00 0.61 0.00 70 1019.8
20180818053022 64 311 9.0 15.0 0.00 0.61 0.00 70 1019.7
20180818052021 64 312 11.0 16.0 0.00 0.61 0.00 70 1019.7
20180818051023 63 310 11.0 18.0 0.00 0.61 0.00 72 1019.7
20180818050023 63 308 10.0 16.0 0.00 0.61 0.00 73 1019.5
20180818045021 63 312 9.0 14.0 0.00 0.61 0.00 74 1019.5
20180818044021 63 314 8.0 14.0 0.00 0.61 0.00 74 1019.5
20180818043023 64 331 8.0 15.0 0.00 0.61 0.00 73 1019.6
20180818042021 64 325 9.0 17.0 0.00 0.61 0.00 75 1019.4
20180818041022 63 318 11.0 19.0 0.00 0.61 0.00 74 1019.3
20180818040021 63 311 11.0 17.0 0.00 0.61 0.00 74 1019.4
20180818035022 63 301 7.0 16.0 0.00 0.61 0.00 74 1019.3
20180818034022 63 305 8.0 17.0 0.00 0.61 0.00 74 1019.4
20180818033021 63 304 9.0 15.0 0.00 0.61 0.00 74 1019.4
20180818032026 63 310 10.0 15.0 0.00 0.61 0.00 73 1019.5
20180818031023 63 308 9.0 17.0 0.00 0.61 0.00 73 1019.7
20180818030022 63 312 10.0 18.0 0.00 0.61 0.00 74 1019.5
20180818025019 63 312 11.0 20.0 0.00 0.61 0.00 73 1019.6
20180818024021 63 307 8.0 16.0 0.00 0.61 0.00 75 1019.6
20180818023022 63 312 7.0 16.0 0.00 0.61 0.00 75 1019.6
20180818022021 64 320 5.0 11.0 0.00 0.61 0.00 72 1019.7
20180818021021 65 300 9.0 19.0 0.00 0.61 0.00 72 1019.7
20180818020021 66 312 11.0 17.0 0.00 0.61 0.00 72 1019.5
20180818015021 65 323 12.0 18.0 0.00 0.61 0.00 73 1019.6
20180818014022 65 315 10.0 18.0 0.00 0.61 0.00 74 1019.5
20180818013021 65 328 4.0 12.0 0.00 0.61 0.00 75 1019.5
20180818012022 65 0 0.0 0.0 0.00 0.61 0.00 77 1019.5
20180818011021 65 0 0.0 0.0 0.00 0.61 0.00 76 1019.4
20180818010022 66 299 1.0 6.0 0.00 0.61 0.00 75 1019.5
20180818005021 66 279 1.0 6.0 0.00 0.61 0.00 76 1019.6
20180818004020 66 317 1.0 9.0 0.00 0.61 0.00 75 1019.6
20180818003021 66 316 3.0 10.0 0.00 0.61 0.00 75 1019.6
20180818002020 67 310 2.0 9.0 0.00 0.61 0.00 75 1019.7
20180818001021 67 341 3.0 10.0 0.00 0.61 0.00 75 1019.7
20180818000025 66 0 0.0 0.0 0.00 0.61 0.00 78 1019.7
20180817235021 66 0 0.0 0.0 0.00 0.61 0.61 81 1019.9
20180817234020 66 0 0.0 0.0 0.00 0.61 0.61 80 1019.9
20180817233022 66 0 0.0 0.0 0.00 0.61 0.61 80 1019.9
20180817232021 67 279 0.0 5.0 0.00 0.61 0.61 78 1020.0
20180817231021 67 0 0.0 0.0 0.00 0.61 0.61 78 1020.1
20180817230021 67 319 1.0 7.0 0.00 0.61 0.61 78 1020.0
20180817225021 67 321 6.0 9.0 0.00 0.61 0.61 79 1019.9
20180817224021 67 325 6.0 10.0 0.00 0.61 0.61 79 1019.9
20180817223021 67 319 2.0 9.0 0.00 0.61 0.61 79 1019.9
20180817222021 67 307 1.0 7.0 0.00 0.61 0.61 79 1019.9
20180817221021 66 0 0.0 0.0 0.00 0.61 0.61 81 1019.9
20180817220022 66 0 0.0 0.0 0.00 0.61 0.61 81 1019.9
20180817215021 66 0 0.0 0.0 0.00 0.61 0.61 81 1019.8
20180817214021 66 0 0.0 0.0 0.00 0.61 0.61 83 1019.8
20180817213021 66 0 0.0 0.0 0.00 0.61 0.61 83 1019.9
20180817212021 66 0 0.0 0.0 0.00 0.61 0.61 82 1019.8
20180817211022 65 0 0.0 0.0 0.00 0.61 0.61 83 1019.6
20180817210022 65 0 0.0 0.0 0.00 0.61 0.61 83 1019.5
20180817205021 65 326 2.0 8.0 0.00 0.61 0.61 84 1019.5
20180817204021 65 0 0.0 0.0 0.00 0.61 0.61 85 1019.5
20180817203019 65 0 0.0 0.0 0.00 0.61 0.61 85 1019.4
20180817202020 65 0 0.0 0.0 0.01 0.61 0.61 85 1019.4
20180817201019 65 0 0.0 0.0 0.01 0.61 0.61 86 1019.3
20180817200021 65 327 2.0 9.0 0.01 0.61 0.61 86 1019.4
20180817195021 65 0 0.0 0.0 0.01 0.61 0.61 85 1019.1
20180817194021 65 315 1.0 7.0 0.02 0.61 0.61 86 1019.0
20180817193021 65 0 0.0 0.0 0.02 0.61 0.61 86 1018.8
20180817192020 67 0 0.0 0.0 0.02 0.60 0.60 82 1018.9
20180817191023 66 341 0.0 6.0 0.02 0.60 0.60 83 1018.9
20180817190022 66 281 1.0 7.0 0.02 0.60 0.60 85 1019.0
20180817185022 66 253 0.0 4.0 0.02 0.60 0.60 83 1019.0
20180817184021 68 10 0.0 1.0 0.00 0.58 0.58 79 1018.6
20180817183021 68 22 6.0 12.0 0.00 0.58 0.58 75 1018.3
20180817182022 68 29 6.0 14.0 0.01 0.58 0.58 75 1018.4
20180817181020 68 29 8.0 19.0 0.02 0.58 0.58 76 1018.2
20180817180020 68 34 10.0 19.0 0.02 0.58 0.58 76 1018.2
20180817175019 67 37 10.0 22.0 0.04 0.58 0.58 77 1018.4
20180817174021 67 37 7.0 14.0 0.04 0.58 0.58 78 1018.5
20180817173018 66 34 11.0 27.0 0.04 0.58 0.58 79 1018.8
20180817172019 66 29 14.0 27.0 0.03 0.57 0.57 79 1018.3
20180817171019 67 29 15.0 30.0 0.02 0.57 0.57 77 1018.2
20180817170018 67 28 12.0 27.0 0.01 0.55 0.55 81 1018.6
20180817165018 68 33 8.0 16.0 0.00 0.54 0.54 81 1018.4
20180817164021 69 31 9.0 19.0 0.00 0.54 0.54 81 1017.7
20180817163019 68 27 5.0 15.0 0.00 0.54 0.54 87 1017.9
20180817162014 68 52 4.0 10.0 0.08 0.54 0.54 87 1018.0
20180817161022 67 62 6.0 13.0 0.14 0.54 0.54 86 1018.2
20180817160022 68 81 1.0 9.0 0.22 0.54 0.54 90 1018.3
20180817155013 68 0 0.0 0.0 0.22 0.54 0.54 89 1018.8
20180817154014 68 83 0.0 5.0 0.22 0.54 0.54 90 1018.5
20180817153021 68 78 4.0 11.0 0.24 0.54 0.54 89 1018.2
20180817152023 68 70 4.0 15.0 0.20 0.46 0.46 89 1018.5
20180817151020 68 30 2.0 9.0 0.24 0.39 0.39 87 1018.0
20180817150015 68 31 1.0 8.0 0.26 0.32 0.32 85 1018.2
20180817145021 68 85 4.0 15.0 0.27 0.32 0.32 84 1018.3
20180817144024 69 61 8.0 24.0 0.28 0.32 0.32 81 1017.6
20180817143021 69 62 6.0 13.0 0.27 0.31 0.31 80 1018.2
20180817142021 68 281 7.0 15.0 0.20 0.24 0.24 80 1017.4